CAPE
0 0 0 0 0 0 0 0 22 31 152 28 226 231 139 96 43 231 199 246 292 380 546 608 577 744 796 928 1000 886 879 1190
0 0 0 0 0 0 0 0 0 36 164 60 164 552 326 270 236 307 302 324 334 395 548 698 622 831 922 1019 982 788 901 999
0 0 0 0 0 0 0 0 0 0 3 145 436 553 568 451 424 462 466 482 511 494 504 685 715 761 942 1126 1168 1001 968 954
0 0 0 0 0 0 0 0 0 0 3 0 246 228 621 556 559 533 657 645 589 552 620 720 799 845 983 1131 1038 1169 1311 1361
0 0 0 0 0 0 0 0 10 0 0 0 118 259 271 767 697 550 524 706 703 699 760 854 851 998 1066 1242 1146 1124 1220 1456
0 1 0 0 0 0 0 0 4 0 0 58 161 425 459 546 850 737 671 816 815 880 920 908 876 912 1009 1109 1237 1156 1057 1011
0 0 0 0 0 0 0 11 30 0 31 104 292 500 675 650 777 876 848 1046 1143 1099 959 856 868 962 999 1038 1130 1107 1028 928
0 0 0 0 0 0 0 0 14 30 141 130 149 305 775 956 870 1120 1171 1169 1275 1331 1160 921 814 870 818 938 1105 751 655 685
1 0 0 0 0 0 0 2 44 81 145 149 434 685 936 1270 1283 1400 1568 1546 1627 1513 1408 1197 999 926 866 805 730 635 621 495
5 3 1 0 0 1 25 25 2 31 73 272 500 733 1116 1350 1501 1670 1845 1793 1811 1729 1720 1809 1517 1318 1152 836 752 595 518 410
15 35 6 0 0 18 27 21 21 22 23 45 43 317 879 1093 1515 1883 2034 1967 1928 1836 2047 1723 1716 1700 1645 1493 1328 1270 1212 1098
8 35 60 52 19 14 14 31 3 22 60 108 87 229 502 394 1154 1592 1769 1842 1971 1906 1790 1862 1803 1658 1552 1482 1421 1413 1444 1414
19 28 41 48 65 60 89 70 4 64 82 313 304 378 605 289 334 1101 1736 1714 1931 1864 1793 1826 1622 1515 1522 1509 1506 1492 1417 994
35 34 55 14 162 257 165 102 68 65 141 219 359 385 427 492 517 590 1520 1778 1880 1916 1892 1662 1660 1529 1457 1420 1184 1426 1262 988
180 130 88 33 50 62 71 208 216 239 239 217 118 281 406 555 759 980 1274 1874 1907 1960 1865 1745 1710 1575 1477 1262 1204 1184 1195 891
126 43 28 5 35 70 186 223 86 27 191 631 378 598 694 638 863 1160 1531 1971 1944 1988 1806 1728 1631 1546 1187 1112 1133 1016 835 629
23 16 19 116 52 149 296 186 118 44 67 528 821 858 866 877 1185 1482 1883 2020 1982 1926 1506 1343 1290 1070 815 758 495 471 597 280
45 142 8 14 28 12 7 85 202 92 131 365 714 855 923 1076 1519 1787 1660 1499 1568 1343 1214 834 893 626 586 388 409 346 487 10
355 269 31 0 1 20 12 40 148 210 261 220 646 753 867 1178 1242 1195 1123 1104 1136 600 525 361 532 512 438 250 322 392 385 3
CIN
0 0 0 0 0 0 0 0 -29 -46 -45 -87 -164 -191 -254 -244 -326 -239 -209 -161 -126 -154 -137 -119 -123 -135 -127 -125 -132 -130 -101 -76
0 0 0 0 0 0 0 0 0 -22 -44 -9 -26 -80 -161 -165 -202 -214 -189 -154 -134 -144 -135 -132 -111 -105 -124 -123 -117 -144 -113 -99
0 0 0 0 0 0 0 0 0 0 -12 -38 -57 -81 -89 -120 -138 -151 -147 -135 -131 -153 -161 -158 -153 -133 -122 -120 -137 -117 -122 -98
0 0 0 0 0 0 0 0 0 0 -69 0 -136 -184 -122 -109 -142 -160 -152 -136 -153 -172 -194 -196 -194 -164 -156 -134 -145 -111 -98 -78
0 0 0 0 0 0 0 0 -61 0 0 0 -219 -218 -209 -115 -134 -184 -195 -186 -185 -204 -221 -211 -203 -186 -147 -132 -120 -110 -89 -62
0 -14 0 0 0 0 -2 -19 -23 -15 0 -48 -66 -115 -178 -211 -151 -157 -203 -193 -196 -242 -207 -207 -210 -194 -143 -111 -101 -98 -108 -88
0 0 0 0 0 0 0 -20 -11 0 -69 -17 -33 -88 -112 -166 -191 -196 -219 -201 -180 -201 -228 -242 -225 -192 -154 -111 -94 -87 -86 -79
0 0 0 0 -2 0 0 0 -59 -61 -46 -76 -177 -241 -186 -190 -225 -193 -190 -190 -197 -193 -219 -228 -244 -209 -198 -144 -110 -125 -111 -86
-2 0 0 0 0 0 0 -101 -48 -40 -12 -172 -166 -180 -139 -127 -200 -169 -174 -179 -167 -172 -173 -179 -222 -226 -201 -201 -172 -157 -115 -100
-11 -11 -1 0 0 -5 -39 -50 -93 -88 -91 -100 -64 -122 -174 -170 -130 -146 -145 -154 -159 -131 -122 -122 -152 -176 -185 -202 -172 -141 -123 -114
-6 0 -5 0 -7 -44 -40 -12 -34 -73 -93 -107 -221 -213 -147 -216 -213 -123 -134 -133 -140 -138 -132 -159 -140 -133 -120 -108 -94 -57 -47 -20
-16 -4 0 0 -10 -12 -47 -7 -148 -106 -79 -93 -196 -37 -39 -216 -202 -172 -136 -139 -169 -176 -179 -150 -155 -140 -127 -99 -67 -34 -8 0
-9 -8 -1 -112 -169 -153 -21 -29 -161 -150 -117 -150 -89 -61 -152 -280 -288 -198 -138 -179 -178 -227 -184 -159 -167 -168 -153 -102 -49 -22 -6 -2
-13 -11 -1 -45 -67 -41 -175 -224 -241 -255 -196 -189 -200 -220 -248 -277 -299 -284 -203 -188 -185 -212 -217 -209 -159 -137 -142 -105 -95 -24 -14 -8
-10 -12 -79 -13 -144 -140 -208 -157 -179 -238 -245 -273 -247 -218 -198 -202 -263 -296 -242 -173 -171 -167 -232 -187 -137 -123 -124 -114 -80 -45 -5 -3
-9 -35 -28 -32 -34 -79 -126 -141 -199 -56 -234 -198 -238 -204 -201 -197 -242 -243 -213 -183 -167 -159 -203 -169 -120 -107 -134 -120 -66 -42 -29 -20
-9 -24 -39 -23 -40 -41 -18 -53 -91 -86 -181 -176 -173 -199 -237 -257 -257 -208 -142 -148 -127 -139 -167 -174 -132 -113 -150 -128 -128 -76 -24 -54
-2 -12 -90 0 -3 -2 -22 -58 -53 -130 -156 -168 -180 -212 -259 -269 -219 -179 -170 -204 -191 -146 -155 -175 -138 -142 -148 -143 -103 -75 -28 -21
-6 -26 -59 -1 -1 -71 -33 -98 -70 -100 -126 -163 -140 -191 -213 -193 -198 -210 -218 -163 -93 -58 -261 -254 -160 -144 -178 -158 -80 -55 -38 0
Wind_Speed
nan nan nan nan nan nan nan nan nan nan 5 nan 4 5 7 nan nan 15 20 19 16 13 15 12 12 10 11 7 3 6 7 2
nan nan nan nan nan nan nan nan nan nan 8 nan 8 10 12 14 13 15 18 20 16 12 11 11 10 11 13 8 6 6 4 3
nan nan nan nan nan nan nan nan nan nan nan 8 4 3 13 15 13 14 20 19 15 13 8 8 11 11 13 9 11 13 7 4
nan nan nan nan nan nan nan nan nan nan nan nan 9 9 6 16 15 14 13 19 13 12 10 9 13 11 9 9 15 13 16 11
nan nan nan nan nan nan nan nan nan nan nan nan 6 11 11 10 16 17 16 15 10 10 8 8 9 8 8 13 13 14 12 20
nan nan nan nan nan nan nan nan nan nan nan nan 10 8 10 7 8 13 19 15 10 9 7 6 6 9 9 11 12 10 10 15
nan nan nan nan nan nan nan nan nan nan nan 13 14 14 13 8 8 10 14 15 13 14 13 9 9 10 10 10 12 13 14 18
nan nan nan nan nan nan nan nan nan nan 17 19 25 19 14 10 14 15 19 13 13 11 9 9 9 10 12 11 12 14 17 18
nan nan nan nan nan nan nan nan nan nan 17 27 25 20 15 18 22 20 14 12 17 15 12 10 12 13 13 12 12 12 12 14
nan nan nan nan nan nan nan nan nan nan nan 25 18 19 17 13 11 15 10 12 18 24 21 17 17 18 20 19 16 15 14 13
nan nan nan nan nan nan nan nan nan nan nan nan nan 22 14 15 11 13 19 18 20 25 25 25 24 23 24 22 21 18 17 15
nan nan nan nan nan nan nan nan nan nan nan 36 nan 18 11 28 19 9 14 17 23 28 30 28 27 27 27 28 23 19 18 19
nan nan nan nan nan nan nan nan nan nan nan 42 37 26 23 26 19 10 16 27 21 31 27 29 27 27 29 29 27 24 21 21
nan nan nan nan 40 39 40 39 nan nan 38 30 31 28 24 22 19 15 16 29 25 32 33 32 30 29 31 31 29 28 26 24
32 38 nan nan nan nan nan 21 35 39 39 38 30 28 21 27 25 21 19 26 30 30 35 32 31 29 32 33 31 29 26 26
33 nan nan nan nan nan 31 32 nan nan 33 32 29 26 22 31 25 20 22 27 33 36 34 35 30 29 34 33 30 29 29 28
nan nan nan 36 nan 32 30 29 31 nan nan 35 34 31 25 28 26 23 26 34 35 39 38 38 34 30 30 28 28 29 32 32
nan 25 nan nan nan nan nan nan 29 nan 37 37 33 35 33 32 30 33 38 39 39 46 45 39 34 30 31 29 26 27 28 nan
6 14 nan nan nan nan nan nan 21 20 26 33 35 36 33 33 36 39 43 46 50 43 45 43 33 27 29 28 21 23 24 nan
Wind_Direction
nan nan nan nan nan nan nan nan nan nan 161 nan 308 283 260 nan nan 355 12 356 354 342 341 321 322 309 306 302 295 354 20 323
nan nan nan nan nan nan nan nan nan nan 206 nan 243 299 289 299 331 346 354 1 354 324 316 302 305 319 309 282 298 318 339 312
nan nan nan nan nan nan nan nan nan nan nan 251 188 294 316 307 323 337 358 358 351 347 306 294 271 309 305 263 257 262 277 266
nan nan nan nan nan nan nan nan nan nan nan nan 262 245 301 320 330 332 346 353 350 352 335 317 303 305 314 269 267 260 251 246
nan nan nan nan nan nan nan nan nan nan nan nan 303 286 295 317 319 333 329 333 335 328 348 330 310 304 309 293 292 291 235 223
nan nan nan nan nan nan nan nan nan nan nan nan 343 352 314 313 334 326 321 308 299 297 296 301 319 314 301 287 273 274 225 222
nan nan nan nan nan nan nan nan nan nan nan 296 297 331 338 333 276 301 330 303 283 279 274 280 288 296 302 291 268 257 240 240
nan nan nan nan nan nan nan nan nan nan 286 291 280 281 303 311 327 295 300 305 277 269 293 313 305 296 290 286 278 276 261 255
nan nan nan nan nan nan nan nan nan nan 296 283 279 295 316 305 313 315 304 304 284 277 285 303 315 303 295 283 282 281 278 275
nan nan nan nan nan nan nan nan nan nan nan 279 276 271 278 290 330 327 307 291 285 277 273 279 292 295 287 281 273 278 279 277
nan nan nan nan nan nan nan nan nan nan nan nan nan 255 267 290 310 305 302 289 283 275 270 275 279 288 291 286 283 279 277 279
nan nan nan nan nan nan nan nan nan nan nan 261 nan 255 268 258 280 274 254 266 289 283 276 274 280 279 285 287 278 272 269 265
nan nan nan nan nan nan nan nan nan nan nan 256 263 254 225 229 235 263 282 271 270 288 286 287 289 279 275 279 275 267 265 265
nan nan nan nan 247 243 235 229 nan nan 227 232 232 225 214 212 214 249 271 280 303 289 280 284 284 277 270 269 267 268 272 275
247 244 nan nan nan nan nan 222 224 221 214 213 211 222 206 209 222 247 254 263 272 280 280 278 283 276 267 259 261 264 269 272
237 nan nan nan nan nan 234 226 nan nan 206 207 205 197 185 195 216 239 249 245 263 280 269 272 273 270 258 258 257 263 267 270
nan nan nan 242 nan 224 223 219 214 nan nan 211 212 201 211 217 224 235 230 240 259 267 253 264 263 254 253 256 258 261 264 268
nan 248 nan nan nan nan nan nan 212 nan 217 211 216 216 220 233 237 243 244 234 256 251 256 254 254 265 259 257 260 263 265 nan
270 278 nan nan nan nan nan nan 200 200 208 212 218 224 231 235 239 244 249 251 246 247 247 253 254 271 269 269 253 261 264 nan